TimeEDT,TemperatureF,Dew PointF,Humidity,Sea Level PressureIn,VisibilityMPH,Wind Direction,Wind SpeedMPH,Gust SpeedMPH,PrecipitationIn,Events,Conditions,WindDirDegrees,DateUTC
12:15 AM,39.2,24.8,56,30.07,10.0,North,6.9,-,N/A,,Clear,360,2013-04-06 04:15:00
12:35 AM,37.4,24.8,60,30.08,10.0,North,3.5,-,N/A,,Clear,350,2013-04-06 04:35:00
12:55 AM,37.4,24.8,60,30.08,10.0,North,4.6,-,N/A,,Clear,10,2013-04-06 04:55:00
1:15 AM,37.4,24.8,60,30.09,10.0,North,5.8,-,N/A,,Clear,350,2013-04-06 05:15:00
1:35 AM,37.4,24.8,60,30.09,10.0,North,5.8,-,N/A,,Clear,350,2013-04-06 05:35:00
1:55 AM,37.4,24.8,60,30.09,10.0,North,6.9,-,N/A,,Clear,350,2013-04-06 05:55:00
2:15 AM,35.6,24.8,65,30.09,10.0,North,5.8,-,N/A,,Clear,350,2013-04-06 06:15:00
2:35 AM,35.6,23.0,60,30.09,10.0,North,4.6,-,N/A,,Clear,350,2013-04-06 06:35:00
2:55 AM,35.6,23.0,60,30.10,10.0,NNW,4.6,-,N/A,,Clear,340,2013-04-06 06:55:00
3:15 AM,35.6,23.0,60,30.10,10.0,NNW,3.5,-,N/A,,Clear,340,2013-04-06 07:15:00
3:35 AM,33.8,21.2,60,30.09,10.0,NNW,5.8,-,N/A,,Clear,340,2013-04-06 07:35:00
3:55 AM,33.8,21.2,60,30.10,10.0,NNW,6.9,-,N/A,,Clear,330,2013-04-06 07:55:00
4:15 AM,33.8,21.2,60,30.10,10.0,NW,6.9,-,N/A,,Clear,320,2013-04-06 08:15:00
4:35 AM,33.8,21.2,60,30.10,10.0,NNW,8.1,-,N/A,,Clear,330,2013-04-06 08:35:00
4:55 AM,33.8,21.2,60,30.11,10.0,NW,8.1,-,N/A,,Clear,310,2013-04-06 08:55:00
5:15 AM,33.8,21.2,60,30.12,10.0,NW,8.1,-,N/A,,Clear,320,2013-04-06 09:15:00
5:35 AM,32.0,19.4,60,30.12,10.0,NW,3.5,-,N/A,,Clear,320,2013-04-06 09:35:00
5:55 AM,33.8,19.4,56,30.13,10.0,NNW,3.5,-,N/A,,Clear,330,2013-04-06 09:55:00
6:15 AM,32.0,17.6,55,30.14,10.0,Calm,Calm,-,N/A,,Clear,0,2013-04-06 10:15:00
6:35 AM,33.8,10.4,38,30.15,10.0,North,5.8,-,N/A,,Clear,10,2013-04-06 10:35:00
6:55 AM,33.8,6.8,32,30.15,10.0,NE,4.6,-,N/A,,Clear,50,2013-04-06 10:55:00
7:15 AM,33.8,5.0,30,30.17,10.0,NNE,3.5,-,N/A,,Clear,30,2013-04-06 11:15:00
7:35 AM,33.8,6.8,32,30.18,10.0,Calm,Calm,-,N/A,,Clear,0,2013-04-06 11:35:00
8:15 AM,35.6,8.6,33,30.20,10.0,Calm,Calm,-,N/A,,Clear,0,2013-04-06 12:15:00
8:35 AM,37.4,3.2,24,30.21,10.0,Calm,Calm,-,N/A,,Clear,0,2013-04-06 12:35:00
8:55 AM,37.4,3.2,24,30.21,10.0,Calm,Calm,-,N/A,,Clear,0,2013-04-06 12:55:00
9:15 AM,39.2,19.4,45,30.22,10.0,Calm,Calm,-,N/A,,Clear,0,2013-04-06 13:15:00
9:35 AM,39.2,17.6,42,30.22,10.0,ESE,4.6,-,N/A,,Clear,110,2013-04-06 13:35:00
9:55 AM,39.2,12.2,33,30.22,10.0,ESE,3.5,-,N/A,,Clear,110,2013-04-06 13:55:00
10:15 AM,39.2,10.4,31,30.23,10.0,East,4.6,-,N/A,,Clear,100,2013-04-06 14:15:00
10:35 AM,41.0,12.2,31,30.23,10.0,East,5.8,-,N/A,,Clear,90,2013-04-06 14:35:00
10:55 AM,41.0,10.4,29,30.24,10.0,SE,5.8,-,N/A,,Clear,130,2013-04-06 14:55:00
11:15 AM,41.0,10.4,29,30.24,10.0,South,3.5,-,N/A,,Clear,170,2013-04-06 15:15:00
11:35 AM,42.8,15.8,34,30.24,10.0,ESE,5.8,-,N/A,,Clear,120,2013-04-06 15:35:00
11:55 AM,42.8,15.8,34,30.24,10.0,SSE,3.5,-,N/A,,Clear,160,2013-04-06 15:55:00
12:15 PM,42.8,15.8,34,30.24,10.0,East,3.5,-,N/A,,Clear,90,2013-04-06 16:15:00
12:35 PM,44.6,15.8,31,30.24,10.0,SSE,6.9,-,N/A,,Clear,150,2013-04-06 16:35:00
12:55 PM,46.4,15.8,29,30.24,10.0,South,3.5,-,N/A,,Clear,170,2013-04-06 16:55:00
1:15 PM,46.4,14.0,27,30.24,10.0,ESE,4.6,-,N/A,,Clear,110,2013-04-06 17:15:00
1:35 PM,46.4,10.4,23,30.24,10.0,SE,3.5,-,N/A,,Clear,130,2013-04-06 17:35:00
1:55 PM,48.2,10.4,22,30.24,10.0,South,4.6,-,N/A,,Clear,180,2013-04-06 17:55:00
2:15 PM,48.2,15.8,27,30.23,10.0,SE,9.2,-,N/A,,Clear,140,2013-04-06 18:15:00
2:35 PM,48.2,15.8,27,30.22,10.0,SE,4.6,-,N/A,,Clear,140,2013-04-06 18:35:00
2:55 PM,48.2,17.6,30,30.22,10.0,East,4.6,-,N/A,,Clear,100,2013-04-06 18:55:00
3:15 PM,51.8,21.2,30,30.21,10.0,SE,6.9,-,N/A,,Clear,130,2013-04-06 19:15:00
3:35 PM,51.8,23.0,33,30.21,10.0,SSE,6.9,-,N/A,,Clear,160,2013-04-06 19:35:00
3:55 PM,51.8,23.0,33,30.21,10.0,SSE,9.2,-,N/A,,Clear,150,2013-04-06 19:55:00
4:15 PM,51.8,23.0,33,30.20,10.0,SE,6.9,-,N/A,,Clear,130,2013-04-06 20:15:00
4:35 PM,51.8,24.8,35,30.20,10.0,SSE,6.9,-,N/A,,Clear,150,2013-04-06 20:35:00
4:55 PM,51.8,24.8,35,30.20,10.0,SE,5.8,-,N/A,,Clear,140,2013-04-06 20:55:00
5:15 PM,51.8,26.6,38,30.20,10.0,SSE,8.1,-,N/A,,Clear,150,2013-04-06 21:15:00
5:35 PM,50.0,26.6,40,30.20,10.0,SSE,8.1,-,N/A,,Clear,150,2013-04-06 21:35:00
5:55 PM,50.0,26.6,40,30.20,10.0,South,9.2,-,N/A,,Clear,170,2013-04-06 21:55:00
6:15 PM,48.2,24.8,40,30.20,10.0,SSE,8.1,-,N/A,,Clear,150,2013-04-06 22:15:00
6:35 PM,48.2,26.6,43,30.20,10.0,SSE,8.1,-,N/A,,Clear,150,2013-04-06 22:35:00
6:55 PM,46.4,26.6,46,30.20,10.0,SSE,8.1,-,N/A,,Clear,150,2013-04-06 22:55:00
7:15 PM,46.4,26.6,46,30.20,10.0,SSE,8.1,-,N/A,,Clear,160,2013-04-06 23:15:00
7:35 PM,46.4,26.6,46,30.20,10.0,SSE,8.1,-,N/A,,Clear,160,2013-04-06 23:35:00
7:55 PM,44.6,24.8,46,30.21,10.0,SSE,9.2,-,N/A,,Clear,160,2013-04-06 23:55:00
8:15 PM,44.6,24.8,46,30.21,10.0,South,8.1,-,N/A,,Clear,170,2013-04-07 00:15:00
8:35 PM,44.6,24.8,46,30.21,10.0,SSE,8.1,-,N/A,,Clear,160,2013-04-07 00:35:00
8:55 PM,44.6,23.0,43,30.21,10.0,SSE,11.5,-,N/A,,Clear,160,2013-04-07 00:55:00
9:15 PM,44.6,21.2,39,30.21,10.0,SSE,10.4,17.3,N/A,,Clear,160,2013-04-07 01:15:00
9:35 PM,42.8,21.2,42,30.21,10.0,SSE,10.4,16.1,N/A,,Clear,160,2013-04-07 01:35:00
9:55 PM,42.8,21.2,42,30.22,10.0,SSE,9.2,16.1,N/A,,Clear,160,2013-04-07 01:55:00
10:15 PM,42.8,21.2,42,30.21,10.0,SSE,10.4,17.3,N/A,,Clear,150,2013-04-07 02:15:00
10:35 PM,42.8,19.4,39,30.21,10.0,SSE,11.5,-,N/A,,Clear,160,2013-04-07 02:35:00
10:55 PM,42.8,19.4,39,30.21,10.0,SSE,13.8,18.4,N/A,,Clear,160,2013-04-07 02:55:00
11:15 PM,42.8,19.4,39,30.21,10.0,South,11.5,-,N/A,,Clear,170,2013-04-07 03:15:00
11:35 PM,42.8,17.6,36,30.20,10.0,South,11.5,17.3,N/A,,Clear,170,2013-04-07 03:35:00
11:55 PM,42.8,17.6,36,30.20,10.0,South,10.4,16.1,N/A,,Clear,170,2013-04-07 03:55:00